Location: Benque
(43.2594°N, 0.9178°E)
Time: 14:59:15
(UTC+00:00)

USA 234 - Pass Details

Date: 24 January 2020
Orbit: 1100 x 1107 km, 123.0° (Epoch: 20 February)

Event Time Altitude Azimuth Distance (km) Brightness Sun altitude
Rises 17:17:29 0° 122° (ESE) 3,906 5.8 -4.2°
Reaches altitude 10° 17:19:57 10° 120° (ESE) 2,951 5.2 -4.7°
Maximum altitude 17:26:27 75° 37° (NE) 1,138 3.3 -5.8°
Drops below altitude 10° 17:32:59 10° 313° (NW) 2,966 5.9 -6.9°
Sets 17:35:28 0° 312° (NW) 3,927 6.6 -7.3°
